Total_Precipitation_Accumulation
1.42 1.43 1.34 1.55 1.67 1.71 1.77 1.80 1.75 1.65 1.62 1.44 1.45 1.46 1.48 1.35 1.48 1.63 2.09 2.52 3.03 3.77 3.95 3.60 3.33 3.23 2.95 2.78 2.94 2.94 3.01 3.06 3.09 3.05 3.07 3.42 3.55 3.14 3.06 3.07 3.15 3.58 4.04
1.25 1.46 1.37 1.39 1.52 1.72 1.84 1.84 1.79 1.85 1.82 1.60 1.57 1.63 1.60 1.55 1.58 1.65 1.86 1.93 2.11 2.69 3.35 3.71 3.84 3.70 3.33 3.11 3.02 3.05 3.21 3.15 3.00 2.90 2.91 3.13 3.33 3.02 2.99 3.14 3.14 3.46 3.86
1.18 1.44 1.38 1.29 1.30 1.47 1.67 1.92 1.99 1.99 1.76 1.67 1.70 1.70 1.60 1.58 1.59 1.78 1.86 1.93 1.85 1.97 2.43 2.92 3.45 3.63 3.67 3.55 3.25 3.11 3.26 3.21 3.07 2.90 2.84 2.86 3.09 3.07 3.08 3.19 3.16 3.36 3.57
0.99 1.26 1.35 1.26 1.25 1.44 1.70 1.98 2.18 2.21 2.00 1.96 2.01 1.92 1.70 1.64 1.58 1.73 1.82 1.91 2.03 1.82 1.85 2.01 2.40 2.93 3.38 3.48 3.48 3.37 3.37 3.23 2.98 2.84 2.66 2.60 2.79 2.94 3.08 3.12 3.07 3.23 3.36
0.93 1.19 1.42 1.45 1.43 1.61 1.73 1.75 2.02 2.18 2.28 2.19 2.02 1.89 1.83 1.81 1.77 1.72 1.87 1.88 1.95 1.90 1.76 1.52 1.58 1.97 2.58 3.03 3.28 3.36 3.52 3.33 2.99 2.82 2.52 2.39 2.51 2.75 3.10 2.86 2.83 2.92 3.18
1.12 1.36 1.61 1.64 1.71 1.80 1.90 2.11 2.40 2.42 2.34 2.36 2.10 1.84 1.73 1.77 1.82 1.93 1.92 1.92 1.99 1.83 1.67 1.52 1.45 1.42 1.91 2.43 2.80 3.10 3.25 3.30 3.12 3.03 2.72 2.37 2.34 2.55 2.91 2.79 2.73 2.84 3.11
1.31 1.54 1.73 1.97 2.10 1.99 2.03 2.30 2.60 2.70 2.50 2.34 2.43 2.27 2.08 1.90 1.89 1.86 1.87 1.94 1.98 1.93 1.82 1.75 1.67 1.54 1.65 1.88 2.14 2.59 2.90 3.09 3.16 3.21 3.06 2.69 2.48 2.47 2.58 2.51 2.50 2.80 3.16
1.41 1.44 1.70 1.89 1.99 2.11 2.15 2.26 2.57 2.91 2.68 2.40 2.64 3.09 2.85 2.61 2.09 1.74 1.88 1.93 2.02 2.01 1.93 1.78 1.78 1.68 1.66 1.85 1.60 1.69 2.17 2.68 3.12 3.26 3.14 2.92 2.73 2.48 2.52 2.46 2.36 2.49 2.78
1.75 1.71 1.74 1.86 1.95 2.16 2.32 2.35 2.42 2.78 2.84 2.58 2.55 3.18 3.19 3.01 2.74 2.20 1.84 1.89 2.06 2.13 2.14 2.04 1.89 1.82 1.71 1.85 1.67 1.35 1.51 1.86 2.49 2.99 3.22 3.11 2.92 2.63 2.54 2.50 2.44 2.51 2.57
2.07 2.07 2.08 2.16 2.09 2.09 2.20 2.18 2.18 2.44 2.78 2.84 2.64 2.47 2.43 2.58 2.95 2.71 2.14 1.97 2.00 2.02 2.15 2.01 2.00 2.03 1.98 1.91 1.80 1.45 1.19 1.33 1.93 2.70 3.21 3.17 3.00 2.83 2.66 2.60 2.47 2.45 2.47
2.70 2.66 2.56 2.39 2.18 2.11 2.18 2.23 2.25 2.36 2.49 2.66 2.63 2.44 2.38 2.34 2.23 2.46 2.47 2.25 2.02 1.91 2.01 2.03 2.04 2.05 2.09 2.03 1.93 1.58 1.20 1.05 1.33 2.07 2.78 3.02 3.03 2.93 2.84 2.76 2.59 2.42 2.27
2.70 2.65 2.46 2.16 2.00 1.95 2.03 2.20 2.23 2.30 2.30 2.38 2.33 2.18 2.19 2.20 2.17 2.34 2.30 2.29 2.26 1.90 1.74 1.81 1.87 1.93 1.87 1.87 1.73 1.81 1.45 1.12 1.06 1.45 2.02 2.50 2.82 3.01 2.99 3.05 2.87 2.61 2.39
2.06 2.09 2.07 2.03 1.93 1.82 1.89 2.12 2.22 2.27 2.26 2.23 2.15 2.05 2.07 1.95 2.01 2.33 2.44 2.32 2.19 1.86 1.67 1.59 1.66 1.69 1.58 1.69 1.79 1.95 1.66 1.38 1.18 1.23 1.52 1.84 2.12 2.47 2.91 3.20 3.32 3.18 3.04
1.80 1.84 1.89 1.93 1.88 1.81 1.81 1.93 2.06 2.17 2.17 2.11 2.04 2.14 2.13 1.92 2.00 2.09 2.22 2.41 2.25 1.99 1.77 1.54 1.48 1.41 1.46 1.53 1.77 2.00 1.49 1.41 1.26 1.17 1.18 1.35 1.62 1.86 2.21 2.71 3.10 3.23 3.27
1.41 1.52 1.64 1.74 1.71 1.69 1.69 1.83 1.96 1.98 2.06 2.13 2.15 2.16 2.16 2.06 2.07 2.10 2.27 2.41 2.41 2.16 1.93 1.70 1.53 1.36 1.43 1.51 1.79 1.67 1.39 1.41 1.30 1.21 1.16 1.16 1.30 1.55 1.76 1.91 2.12 2.27 2.45
1.30 1.32 1.29 1.32 1.32 1.38 1.40 1.49 1.66 1.74 1.76 1.84 1.89 1.94 1.97 1.93 2.03 2.05 2.15 2.29 2.31 2.23 2.07 1.79 1.60 1.52 1.59 1.53 1.68 1.53 1.49 1.64 1.44 1.26 1.17 1.14 1.18 1.29 1.38 1.46 1.55 1.60 1.64
1.00 1.03 0.96 0.98 1.08 1.09 1.05 1.15 1.26 1.34 1.44 1.54 1.55 1.60 1.65 1.65 1.81 1.86 1.97 2.10 2.18 2.16 1.95 1.71 1.59 1.62 1.68 1.70 1.65 1.52 1.48 1.49 1.44 1.33 1.18 1.11 1.14 1.19 1.23 1.34 1.41 1.41 1.43
0.75 0.76 0.73 0.73 0.82 0.94 0.95 1.04 1.12 1.11 1.20 1.32 1.41 1.44 1.42 1.43 1.55 1.63 1.73 1.82 1.99 2.07 1.98 1.82 1.69 1.59 1.51 1.58 1.72 1.73 1.68 1.57 1.56 1.60 1.48 1.34 1.29 1.22 1.18 1.29 1.40 1.38 1.37
0.70 0.69 0.64 0.67 0.72 0.78 0.92 0.97 1.00 0.99 0.99 1.01 1.08 1.11 1.14 1.26 1.42 1.47 1.49 1.62 1.79 1.88 2.00 1.91 1.80 1.70 1.54 1.50 1.69 1.65 1.68 1.87 1.75 1.80 1.91 1.75 1.53 1.36 1.23 1.27 1.39 1.39 1.34
0.70 0.69 0.62 0.61 0.69 0.78 0.85 0.94 0.95 0.90 0.88 0.91 0.96 0.95 0.93 0.99 1.13 1.29 1.37 1.55 1.74 1.92 2.04 2.01 1.96 1.87 1.75 1.63 1.69 1.82 1.86 1.92 1.92 1.73 1.78 1.79 1.78 1.64 1.43 1.31 1.37 1.45 1.49
0.65 0.64 0.61 0.63 0.67 0.69 0.73 0.89 0.90 0.88 0.90 0.86 0.88 0.91 0.91 0.93 0.97 1.05 1.05 1.25 1.47 1.76 1.92 2.03 2.02 2.01 1.91 1.81 1.70 1.86 1.92 2.03 2.11 2.07 1.98 1.80 1.79 1.63 1.50 1.43 1.41 1.47 1.59
0.62 0.61 0.59 0.62 0.60 0.56 0.79 0.89 0.87 0.89 0.95 0.99 0.94 0.92 0.89 0.88 0.98 0.98 0.97 1.02 1.19 1.39 1.59 1.71 1.77 1.81 1.85 1.92 2.01 2.00 1.96 2.00 2.07 2.06 1.94 1.98 1.97 1.88 1.63 1.43 1.46 1.53 1.60
0.59 0.59 0.60 0.60 0.57 0.56 0.62 0.64 0.72 0.82 0.95 0.99 0.93 1.01 1.03 0.93 0.98 1.01 1.08 1.03 0.98 1.05 1.24 1.45 1.54 1.58 1.67 1.74 1.97 2.01 2.00 2.01 1.89 1.91 1.81 1.89 1.85 1.78 1.67 1.62 1.65 1.56 1.60
0.59 0.59 0.68 0.66 0.57 0.51 0.56 0.54 0.61 0.71 0.83 0.86 0.86 0.94 1.17 1.19 1.09 1.10 1.17 1.23 1.10 0.95 0.99 1.08 1.26 1.42 1.50 1.68 1.99 2.20 2.17 1.94 1.83 1.84 1.74 1.79 1.73 1.64 1.59 1.55 1.64 1.57 1.55
0.52 0.52 0.56 0.61 0.55 0.51 0.55 0.54 0.57 0.64 0.74 0.75 0.78 0.91 1.05 1.15 1.13 1.15 1.11 1.17 1.19 1.06 1.04 1.11 1.10 1.21 1.39 1.57 1.85 2.12 2.22 2.14 1.94 1.83 1.68 1.63 1.65 1.67 1.70 1.61 1.57 1.63 1.59
0.53 0.55 0.55 0.52 0.50 0.49 0.55 0.56 0.60 0.60 0.64 0.61 0.66 0.85 1.07 1.04 1.04 1.10 1.10 1.19 1.29 1.12 1.05 1.15 1.13 1.15 1.20 1.45 1.84 2.02 2.15 2.16 2.02 1.95 1.76 1.68 1.67 1.73 1.96 1.88 1.66 1.59 1.55